Wind_Speed
3 2 1 2 2 3 3 3 2 2 2 2 3 3 3 3 4 3 4 5 5 4 4 4 4 4 5 5 5 5 5 5 5 5 5 5 4 3 3 3 3 3 3
2 1 1 1 1 2 3 3 4 3 3 3 4 4 4 5 4 4 5 5 5 5 5 5 5 5 5 6 7 7 6 6 6 6 6 6 5 5 4 4 4 4 4
1 1 1 1 1 1 2 2 3 3 4 5 5 5 6 6 5 5 5 5 5 5 6 6 6 6 7 7 7 7 7 7 7 7 7 7 6 6 6 6 6 6 6
1 1 1 2 3 3 3 3 3 4 5 6 6 5 5 6 6 6 6 6 6 6 7 7 8 8 7 8 8 8 8 8 9 8 8 8 8 8 8 8 8 8 7
2 2 2 3 3 3 4 4 4 5 6 6 7 6 6 7 7 7 7 7 7 7 8 8 8 8 8 9 9 9 9 10 9 10 10 9 9 10 9 9 9 9 8
3 3 3 3 4 4 5 5 5 6 7 8 8 7 8 8 8 8 7 8 9 9 9 9 9 9 9 10 10 10 10 10 10 10 11 11 11 11 11 10 10 10 10
3 3 4 4 5 5 5 5 6 7 7 8 9 9 9 9 9 9 9 10 10 11 11 10 10 10 10 11 11 11 10 10 10 11 11 12 12 11 10 11 12 11 11
5 4 4 5 6 6 6 6 6 7 8 9 9 9 10 10 10 10 10 10 11 11 10 10 10 10 10 10 11 11 11 11 11 11 11 11 11 11 11 11 12 13 12
5 5 5 6 6 7 7 7 7 8 8 9 9 9 9 9 9 9 10 10 10 10 10 10 10 10 11 11 12 12 12 12 12 12 12 12 12 12 13 13 13 13 13
6 6 6 7 8 8 8 8 8 8 8 9 9 9 8 9 9 9 10 10 11 11 11 11 11 11 11 12 13 13 13 12 12 12 12 13 14 14 15 15 15 15 15
7 7 7 8 8 8 8 9 9 9 9 9 10 10 10 10 10 10 10 11 11 11 12 12 11 11 12 13 13 14 14 14 15 15 15 15 15 15 16 16 16 16 16
8 8 8 9 9 9 8 9 10 10 10 10 10 10 10 10 11 11 11 11 12 12 13 13 12 13 13 13 13 14 14 15 15 16 16 16 17 17 17 18 18 17 17
9 9 9 10 10 10 10 10 11 11 12 11 11 11 11 12 12 12 12 12 13 13 14 14 14 15 14 14 15 15 15 16 16 17 17 18 18 19 19 20 20 20 20
11 11 12 12 12 12 12 12 13 13 13 13 13 13 13 14 14 14 14 15 15 15 15 15 15 15 16 16 16 17 17 17 18 18 18 19 20 20 21 21 22 22 22
12 13 13 13 14 14 14 14 15 15 15 15 15 15 15 16 16 17 17 17 17 17 17 17 17 17 18 18 17 18 19 19 19 19 19 19 20 21 21 22 23 23 23
14 14 14 15 16 16 16 16 16 16 17 17 17 17 18 18 18 19 19 19 19 19 18 18 18 19 19 19 19 20 21 21 21 21 21 21 22 22 22 23 24 24 25
16 16 15 16 17 18 18 18 19 18 18 19 20 20 21 21 21 21 21 21 21 20 20 20 20 20 20 21 21 22 22 22 23 23 23 23 23 24 24 24 25 25 25
17 17 17 17 18 19 20 20 20 20 20 21 22 22 23 23 22 22 23 23 23 23 23 22 22 22 22 23 23 24 24 24 24 24 24 25 25 26 25 26 26 26 26
19 19 19 19 20 21 21 21 21 21 22 23 23 24 24 24 24 24 24 24 24 25 25 24 23 24 24 24 25 26 26 26 26 26 26 26 27 27 27 28 28 27 27
21 21 22 22 22 22 22 22 23 23 24 24 25 25 25 25 26 26 26 26 26 26 26 26 26 25 25 26 27 27 28 28 28 28 28 28 28 28 28 28 28 28 27
23 24 24 24 25 24 23 24 25 25 26 26 26 27 27 27 27 28 27 27 27 28 28 27 27 27 27 28 28 28 28 28 28 28 28 28 28 28 28 28 28 28 28
25 25 26 26 26 26 25 26 26 27 27 28 28 28 28 29 29 29 28 28 28 28 28 29 29 29 29 30 30 29 30 29 29 29 30 29 28 28 28 28 28 28 28
27 27 28 28 28 28 27 28 28 29 29 29 29 29 30 30 30 29 29 29 29 30 30 30 30 30 31 31 31 31 31 31 30 30 30 30 29 29 28 28 28 27 27
30 30 30 30 30 30 30 30 30 30 30 31 31 31 31 31 31 30 30 30 30 30 31 31 32 32 32 32 32 33 32 32 31 31 31 30 29 28 29 28 28 27 27
32 32 32 32 33 32 32 32 33 33 32 32 32 33 33 33 32 32 32 32 32 32 32 33 33 33 33 33 32 33 32 32 31 31 31 30 29 28 28 28 28 28 27
34 34 33 34 34 34 33 33 34 34 34 33 34 34 34 34 33 32 33 33 33 33 33 33 33 32 32 32 32 33 33 32 32 31 30 30 30 29 29 29 29 28 28
Wind_Direction
127 146 163 175 206 215 220 224 238 247 246 237 254 282 295 303 297 299 295 296 293 280 287 292 295 299 306 308 311 313 313 313 306 296 290 290 289 293 301 306 318 319 321
112 99 101 122 208 216 224 237 245 245 239 251 265 283 296 300 300 305 307 295 294 290 280 286 294 296 299 302 306 312 310 308 304 297 290 292 285 285 289 293 297 300 305
83 72 29 5 316 262 260 246 261 249 256 265 271 278 287 293 297 300 303 302 299 296 289 285 287 289 290 296 301 306 305 306 301 300 297 287 282 282 283 285 287 290 294
20 357 333 326 323 314 318 313 307 294 291 290 291 295 293 293 293 297 300 301 296 289 284 282 282 281 288 295 297 298 297 295 297 298 299 291 283 281 285 285 286 284 286
354 351 345 332 325 318 318 311 302 299 299 302 302 299 293 292 292 294 297 295 294 293 289 287 285 286 286 288 292 295 295 296 292 294 295 294 287 281 281 283 287 283 285
340 334 330 328 325 315 314 309 308 308 303 303 307 307 300 294 288 293 294 290 291 290 286 290 286 286 289 287 290 295 294 295 291 292 293 291 289 284 278 276 279 278 282
349 345 337 333 332 328 320 314 314 311 309 304 300 300 303 302 294 290 290 290 290 287 288 290 288 285 288 290 291 290 292 296 295 292 291 289 289 292 284 279 275 278 282
343 339 329 329 324 324 323 322 316 310 313 310 305 302 304 302 298 296 296 297 296 296 296 296 300 295 291 291 290 286 284 286 289 289 288 287 290 292 286 284 280 279 282
337 334 327 329 327 324 325 326 321 314 311 310 309 308 309 310 310 311 311 308 307 305 301 302 301 301 298 295 294 288 285 285 286 288 288 288 288 289 287 283 282 282 284
332 335 336 332 329 325 323 322 323 323 321 321 320 317 314 311 311 310 308 307 309 303 299 301 302 303 301 300 298 295 290 287 286 289 289 288 291 289 289 288 286 285 285
331 323 323 325 324 321 322 319 315 315 316 319 320 321 318 313 311 309 305 302 304 303 296 292 295 296 297 299 296 294 290 287 286 285 286 286 286 286 287 289 288 286 284
325 318 319 319 319 316 315 316 315 315 316 318 319 320 318 315 311 308 304 301 300 300 298 291 290 292 295 297 296 297 294 292 287 285 283 283 284 285 285 284 285 285 285
319 314 312 312 313 311 309 308 311 315 314 315 317 318 315 312 309 307 306 303 301 301 298 294 291 290 294 294 296 297 295 296 291 287 285 283 283 284 283 282 281 282 282
308 309 309 307 305 305 305 306 309 311 311 311 312 312 311 311 309 306 304 302 301 301 299 295 294 293 293 293 294 296 293 294 292 290 288 286 284 282 283 282 282 282 282
299 303 305 305 307 305 305 307 311 310 307 306 307 308 307 307 307 303 302 300 300 301 301 297 294 295 294 292 291 292 292 293 293 290 289 288 287 286 284 282 281 281 281
296 300 301 302 303 306 308 307 306 306 305 304 304 305 305 306 306 303 300 298 298 299 301 302 299 297 295 292 289 290 292 292 293 292 289 286 287 287 286 284 281 281 280
292 296 300 302 303 304 304 305 308 308 306 305 303 302 302 302 302 302 301 298 297 298 299 300 300 300 298 294 292 292 293 293 294 293 288 286 285 286 285 286 283 281 281
289 293 297 300 301 303 302 303 303 304 304 304 303 302 302 301 300 298 298 298 296 295 296 296 295 295 296 296 293 292 292 292 292 293 292 288 286 286 285 284 283 280 279
286 290 294 297 299 301 302 303 302 302 302 302 302 301 301 301 300 298 298 296 295 293 293 293 292 291 292 293 291 291 290 290 291 292 292 292 289 287 285 284 283 281 279
284 288 291 293 295 297 300 301 301 300 301 301 301 301 300 300 298 297 296 296 294 293 292 292 292 291 291 290 290 290 289 290 289 289 290 291 289 286 284 284 283 282 281
282 286 288 290 293 294 296 298 298 299 299 299 299 298 298 299 298 296 295 295 294 292 291 291 291 290 290 290 290 290 289 289 289 289 289 289 288 286 284 283 282 282 280
280 283 286 289 290 292 294 294 296 297 297 297 296 296 296 297 297 295 295 294 293 292 291 291 291 290 290 291 289 289 289 289 288 288 288 289 286 284 285 285 284 283 281
277 280 283 285 287 289 291 292 293 294 296 296 295 294 294 295 295 294 293 293 292 291 290 290 290 291 290 290 289 288 288 289 289 287 287 288 286 283 284 285 285 284 281
275 279 281 283 285 288 289 290 291 293 294 295 294 294 294 294 292 291 291 292 292 291 290 289 290 289 290 290 289 287 287 287 288 287 286 286 285 282 283 283 283 283 282
275 279 281 282 284 285 287 288 289 290 292 292 293 293 292 292 291 290 290 291 291 291 290 290 290 289 289 289 288 287 287 286 286 286 285 285 283 283 282 282 282 282 282
275 278 279 281 284 286 287 288 288 290 292 292 291 291 292 292 292 290 289 289 288 289 289 288 289 288 289 289 288 288 286 285 284 284 284 284 284 283 282 281 281 280 280
Height
5897 5899 5900 5900 5901 5902 5903 5904 5904 5905 5905 5905 5906 5906 5906 5906 5906 5906 5906 5906 5906 5906 5906 5906 5906 5906 5906 5906 5906 5906 5906 5906 5905 5905 5905 5905 5904 5904 5904 5904 5904 5903 5903
5899 5900 5900 5901 5902 5902 5903 5904 5904 5905 5905 5905 5905 5906 5906 5905 5905 5905 5905 5905 5905 5905 5905 5905 5905 5905 5905 5905 5905 5905 5905 5905 5904 5904 5904 5903 5903 5903 5903 5903 5903 5902 5902
5899 5900 5901 5902 5902 5902 5903 5903 5903 5904 5904 5905 5905 5905 5905 5905 5904 5904 5904 5904 5904 5904 5904 5904 5904 5904 5904 5904 5904 5904 5904 5904 5903 5903 5902 5902 5902 5902 5902 5902 5902 5901 5901
5900 5901 5902 5902 5902 5902 5903 5903 5903 5903 5904 5904 5904 5904 5904 5904 5904 5903 5903 5903 5903 5903 5902 5902 5902 5902 5902 5902 5902 5902 5902 5902 5902 5901 5901 5900 5900 5900 5900 5900 5900 5900 5899
5901 5901 5902 5902 5902 5902 5902 5903 5903 5903 5903 5903 5903 5903 5903 5903 5902 5902 5902 5901 5902 5902 5901 5901 5900 5900 5900 5900 5900 5900 5900 5900 5900 5899 5899 5898 5898 5898 5898 5898 5898 5897 5897
5901 5902 5902 5902 5902 5902 5902 5902 5902 5902 5902 5902 5902 5901 5901 5901 5901 5901 5900 5900 5900 5900 5900 5899 5899 5899 5898 5898 5898 5898 5898 5897 5897 5897 5896 5896 5896 5895 5895 5895 5895 5895 5895
5901 5901 5902 5902 5902 5902 5901 5901 5901 5901 5901 5900 5900 5900 5899 5899 5899 5899 5899 5898 5898 5898 5897 5897 5897 5897 5896 5896 5896 5896 5895 5895 5894 5894 5894 5894 5893 5893 5893 5892 5892 5892 5892
5902 5901 5902 5902 5901 5901 5901 5901 5900 5900 5900 5899 5899 5898 5898 5898 5897 5897 5897 5896 5896 5895 5894 5894 5894 5894 5894 5893 5893 5893 5893 5892 5892 5892 5891 5891 5891 5890 5890 5889 5889 5889 5888
5902 5901 5901 5901 5901 5900 5900 5900 5899 5899 5898 5898 5897 5897 5896 5896 5895 5895 5894 5894 5893 5893 5892 5892 5892 5891 5891 5890 5890 5890 5890 5889 5889 5889 5888 5888 5888 5887 5887 5886 5886 5885 5885
5901 5901 5901 5901 5900 5900 5899 5899 5898 5898 5897 5896 5895 5895 5894 5894 5893 5893 5893 5892 5891 5890 5890 5890 5889 5889 5887 5888 5887 5887 5886 5886 5886 5886 5885 5885 5884 5884 5883 5883 5882 5882 5881
5901 5901 5900 5900 5900 5899 5898 5898 5897 5896 5896 5895 5894 5893 5892 5892 5891 5891 5890 5889 5889 5888 5887 5887 5886 5886 5886 5885 5884 5884 5883 5883 5882 5882 5881 5881 5880 5880 5879 5879 5878 5878 5877
5900 5900 5900 5899 5898 5898 5897 5896 5896 5895 5894 5893 5892 5891 5890 5890 5889 5888 5888 5887 5886 5886 5884 5883 5883 5883 5882 5882 5881 5879 5879 5879 5878 5878 5877 5877 5876 5875 5875 5874 5874 5873 5872
5899 5899 5898 5898 5897 5896 5895 5895 5894 5893 5892 5890 5890 5889 5888 5887 5886 5886 5885 5884 5883 5883 5881 5880 5879 5878 5878 5878 5877 5876 5876 5875 5874 5873 5873 5872 5872 5871 5870 5870 5869 5868 5867
5898 5898 5897 5896 5895 5894 5893 5893 5892 5891 5890 5889 5888 5887 5886 5885 5884 5882 5881 5881 5880 5879 5878 5877 5876 5874 5874 5873 5873 5872 5871 5870 5869 5868 5868 5867 5866 5866 5865 5864 5863 5862 5862
5896 5896 5895 5894 5893 5892 5891 5890 5889 5888 5887 5886 5885 5884 5883 5881 5880 5879 5878 5876 5876 5875 5874 5872 5872 5871 5870 5869 5868 5868 5866 5865 5864 5863 5862 5862 5861 5860 5859 5858 5857 5856 5855
5893 5893 5892 5891 5890 5889 5888 5887 5886 5885 5884 5883 5882 5880 5879 5878 5876 5875 5874 5872 5871 5870 5869 5868 5867 5866 5864 5864 5863 5862 5861 5860 5859 5858 5857 5856 5855 5854 5853 5852 5851 5850 5849
5890 5889 5889 5888 5887 5886 5885 5884 5882 5881 5880 5879 5877 5876 5875 5873 5872 5870 5869 5867 5866 5865 5864 5863 5862 5861 5860 5859 5857 5856 5855 5855 5853 5852 5851 5850 5849 5848 5846 5845 5844 5843 5842
5886 5886 5885 5885 5884 5883 5881 5880 5879 5877 5876 5874 5873 5871 5870 5868 5867 5865 5863 5862 5861 5859 5858 5858 5857 5855 5854 5853 5852 5850 5849 5848 5847 5846 5844 5843 5842 5841 5839 5838 5837 5836 5835
5882 5881 5881 5880 5879 5878 5877 5875 5874 5872 5871 5869 5867 5866 5864 5863 5861 5859 5858 5856 5855 5853 5852 5851 5850 5849 5848 5846 5845 5844 5842 5840 5839 5839 5837 5836 5835 5833 5832 5831 5829 5828 5827
5877 5876 5876 5875 5874 5873 5872 5870 5868 5867 5865 5864 5862 5860 5858 5857 5855 5853 5851 5850 5848 5846 5845 5843 5843 5842 5841 5839 5838 5836 5835 5833 5832 5831 5830 5828 5827 5826 5824 5823 5821 5820 5819
5871 5871 5870 5869 5868 5867 5866 5864 5863 5861 5859 5858 5856 5854 5852 5850 5848 5846 5844 5842 5840 5839 5837 5836 5835 5834 5833 5831 5830 5829 5827 5826 5825 5824 5822 5821 5819 5818 5816 5815 5813 5812 5811
5865 5865 5864 5863 5862 5861 5859 5858 5856 5855 5853 5851 5850 5847 5845 5843 5841 5838 5836 5835 5833 5831 5830 5829 5827 5826 5825 5823 5822 5820 5819 5818 5817 5816 5814 5813 5812 5810 5808 5807 5805 5804 5803
5857 5857 5856 5856 5855 5854 5852 5851 5849 5848 5846 5844 5842 5840 5838 5836 5833 5831 5829 5827 5825 5823 5822 5821 5819 5818 5816 5815 5813 5812 5811 5810 5809 5807 5806 5805 5803 5802 5800 5799 5798 5796 5795
5848 5848 5849 5848 5847 5846 5844 5843 5841 5840 5838 5836 5834 5832 5830 5827 5825 5823 5821 5819 5817 5815 5813 5812 5811 5809 5807 5806 5804 5803 5802 5801 5800 5798 5797 5796 5794 5793 5792 5790 5789 5788 5787
5840 5840 5840 5839 5839 5837 5835 5834 5833 5831 5829 5828 5825 5823 5821 5818 5816 5814 5813 5811 5809 5807 5805 5803 5802 5800 5798 5796 5795 5794 5792 5791 5790 5789 5788 5786 5785 5784 5783 5782 5781 5779 5778
5830 5831 5830 5830 5829 5828 5827 5825 5824 5822 5820 5819 5817 5814 5812 5809 5807 5805 5803 5802 5800 5798 5796 5794 5793 5791 5789 5787 5786 5784 5783 5782 5780 5780 5779 5777 5776 5775 5774 5773 5772 5770 5769